Date,TemperatureHighF,TemperatureAvgF,TemperatureLowF,DewpointHighF,DewpointAvgF,DewpointLowF,HumidityHigh,HumidityAvg,HumidityLow,PressureMaxIn,PressureMinIn,WindSpeedMaxMPH,WindSpeedAvgMPH,GustSpeedMaxMPH,PrecipitationSumIn
2013-8-1,88,74,63,71,66,61,97,79,49,29.86,29.63,5,0,12,0.15
2013-8-2,85,74,66,72,67,61,97,79,62,29.78,29.61,3,0,9,0.00
2013-8-3,78,71,63,64,60,59,88,71,55,29.96,29.79,2,0,5,0.00
2013-8-4,81,70,60,68,62,56,86,74,60,29.96,29.80,5,0,9,0.00
2013-8-5,87,75,69,76,72,66,96,88,69,29.81,29.61,3,0,8,0.03
2013-8-6,90,78,66,78,72,64,98,84,62,29.73,29.55,3,0,10,0.26
2013-8-7,84,76,68,74,66,61,91,73,54,29.76,29.59,0,0,4,0.00
2013-8-8,78,71,65,68,64,62,89,80,66,29.80,29.72,1,0,4,0.00
2013-8-9,80,72,62,70,65,60,98,80,57,29.92,29.79,1,0,3,0.00
2013-8-10,85,72,59,68,62,58,98,74,49,29.98,29.85,6,0,13,0.00
2013-8-11,88,76,65,72,67,61,88,74,56,29.89,29.75,5,1,8,0.00
2013-8-12,85,76,68,71,66,63,92,74,47,29.84,29.76,0,0,5,0.00
2013-8-13,81,71,63,64,60,58,87,70,49,29.95,29.84,1,0,3,0.00
2013-8-14,77,67,59,63,59,56,91,75,57,29.97,29.86,5,0,9,0.00
2013-8-15,66,62,59,62,60,58,97,92,83,29.90,29.82,6,0,12,0.53
2013-8-16,77,67,61,63,59,58,92,78,57,29.97,29.89,5,0,10,0.00
2013-8-17,81,69,60,63,59,57,95,72,49,29.98,29.89,5,0,10,0.00
2013-8-18,83,70,55,64,60,54,97,73,50,29.94,29.82,5,0,9,0.00
2013-8-19,87,76,65,72,67,62,90,75,58,29.85,29.69,6,1,14,0.00
2013-8-20,91,80,70,75,70,67,89,74,56,29.73,29.66,9,1,12,0.00
2013-8-21,95,82,72,77,71,67,85,71,52,29.75,29.69,5,1,11,0.00
2013-8-22,87,78,70,73,70,66,91,77,60,29.86,29.73,4,0,6,0.00
2013-8-23,92,80,70,75,71,68,94,75,52,29.84,29.73,7,0,13,0.00
2013-8-24,93,82,75,77,72,69,84,72,56,29.82,29.74,9,1,16,0.00
2013-8-25,97,84,74,76,73,70,89,71,48,29.87,29.78,8,1,13,0.00
2013-8-26,98,85,74,76,72,70,87,67,48,29.83,29.69,7,1,11,0.00
2013-8-27,98,86,77,76,71,67,75,62,42,29.70,29.63,6,1,12,0.00
2013-8-28,100,83,70,74,68,65,83,63,35,29.75,29.67,4,0,8,0.00
2013-8-29,100,84,71,77,72,67,93,71,45,29.75,29.64,6,0,9,0.00
2013-8-30,97,84,72,81,74,69,88,73,50,29.66,29.58,2,0,5,0.00
2013-8-31,98,82,73,75,72,70,94,75,41,29.66,29.53,3,0,6,0.00